Find Dongpo 11

NORAD ID: 68206 Int'l Des: NNA 2026-052 Owner: HUANTZ Country: CN operational
LEORETROGRADE

リアルタイム位置

3D地球を読み込み中...

Dongpo 11について

説明を読み込み中...

次回通過

Passes for default location (London). Set your location on the main map for personalized predictions.

高度履歴

Loading altitude history...

軌道要素

1 68206U 26052J 26121.92578116 .00087139 30677-5 12290-2 0 9990
2 68206 97.3367 194.0615 0524993 220.6056 135.4877 14.72609192 6875
Epoch: May 1, 2026 • Age: 11 hours

現在のステータス

高度 337.1 km
速度 7.89 km/s
衛星直下点 -62.69°S, 3.13°E
打ち上げ日 Mar 16, 2026
運用期間 0.1 years
タイプ other

技術仕様

分類 Payload
質量 100.00 kg
乾燥質量 100.00 kg
総質量 100.00 kg
長さ 1.50 m
直径 1.00 m
スパン 1.50 m
形状 Box
製造者 WEINA
バスタイプ Dongpo
フェーズステータス In Orbit
所有者/国 HUANTZ/CN

Most Searched